Weather History for KGUP - July, 2013

Change the Weather History Date:

Thursday, July 25, 2013

  Actual Average Record
Temperature  
Mean Temperature 68 °F -  
Max Temperature 82 °F 85 °F 94 °F (1979)
Min Temperature 55 °F 53 °F 40 °F (1973)
Cooling Degree Days 3    
Growing Degree Days 18 (Base 50)    
Moisture  
Dew Point 55 °F    
Average Humidity 64    
Maximum Humidity 93    
Minimum Humidity 34    
Precipitation  
Precipitation 0.00 in - - ()
Sea Level Pressure  
Sea Level Pressure 29.85 in    
Wind  
Wind Speed 3 mph (West)    
Max Wind Speed 13 mph    
Max Gust Speed -    
Visibility 10 miles    
Events Rain , Thunderstorm    
Averages and records for this station are not official NWS values.
T = Trace of Precipitation, MM = Missing Value Source: NWS Daily Summary

Daily Weather History Graph

Daily Weather History Graph

Search for Another Location

Airport or City:

Trip Planner

Search our weather history database for the weather conditions in past years. The results will help you decide how hot, cold, wet, or windy it might be!

Date:

Astronomy

Jul. 25, 2013 Rise Set
Actual Time 6:18 AM MDT 8:24 PM MDT
Civil Twilight 5:49 AM MDT 8:52 PM MDT
Nautical Twilight 5:15 AM MDT 9:27 PM MDT
Astronomical Twilight 4:37 AM MDT 10:05 PM MDT
Moon 10:17 PM MDT (7/25) 9:41 AM MDT (7/25)
Length of Visible Light 15h 02m
Length of Day
14h 05m
Waning Gibbous, 88% of the Moon is Illuminated
Jul 25
Waning Gibbous
Jul 29
Last Quarter
Aug 6
New
Aug 14
First Quarter
Aug 20
Full

Hourly Weather History & Observations

Time (MDT) Temp. Dew Point Humidity Pressure Visibility Wind Dir Wind Speed Gust Speed Precip Events Conditions
12:53 AM 64.0 °F 55.0 °F 73% 29.76 in 10.0 mi Calm Calm - N/A   Clear
1:53 AM 64.0 °F 55.0 °F 73% 29.82 in 10.0 mi ESE 4.6 mph - N/A   Clear
2:53 AM 63.0 °F 55.9 °F 78% 29.78 in 10.0 mi Calm Calm - N/A   Clear
3:53 AM 62.1 °F 55.0 °F 78% 29.75 in 10.0 mi Calm Calm - N/A   Clear
4:53 AM 59.0 °F 55.0 °F 87% 29.76 in 10.0 mi Calm Calm - N/A   Clear
5:53 AM 55.9 °F 54.0 °F 93% 29.83 in 10.0 mi Calm Calm - N/A   Clear
6:53 AM 57.9 °F 55.0 °F 90% 29.88 in 10.0 mi NNE 3.5 mph - N/A   Clear
7:53 AM 62.1 °F 57.0 °F 84% 29.86 in 10.0 mi East 4.6 mph - N/A   Clear
8:53 AM 64.9 °F 55.9 °F 73% 29.86 in 10.0 mi Calm Calm - N/A   Clear
9:53 AM 68.0 °F 55.9 °F 65% 29.86 in 10.0 mi SSW 3.5 mph - N/A   Clear
10:53 AM 72.0 °F 57.0 °F 59% 29.83 in 10.0 mi WNW 3.5 mph - N/A   Clear
11:53 AM 73.9 °F 55.0 °F 52% 29.83 in 10.0 mi Calm Calm - N/A   Clear
12:53 PM 78.1 °F 54.0 °F 43% 29.80 in 10.0 mi SE 3.5 mph - N/A   Clear
1:53 PM 81.0 °F 52.0 °F 36% 29.74 in 10.0 mi Calm Calm - N/A   Clear
2:53 PM 81.0 °F 51.1 °F 35% 29.73 in 10.0 mi Calm Calm - N/A   Partly Cloudy
3:19 PM 80.6 °F 50.0 °F 34% 30.25 in 10.0 mi North 11.5 mph - N/A Thunderstorm Mostly Cloudy
3:34 PM 80.6 °F 51.8 °F 37% 30.25 in 10.0 mi NNW 12.7 mph - 0.00 in Rain Light Rain
3:53 PM 77.0 °F 55.0 °F 47% 29.78 in 10.0 mi NW 9.2 mph - 0.00 in   Partly Cloudy
4:53 PM 72.0 °F 57.9 °F 61% 29.83 in 10.0 mi West 9.2 mph - N/A   Clear
5:53 PM 71.1 °F 57.0 °F 61% 29.86 in 10.0 mi West 5.8 mph - N/A   Clear
6:53 PM 72.0 °F 57.9 °F 61% 29.83 in 10.0 mi Calm Calm - N/A   Clear
7:53 PM 71.1 °F 55.9 °F 59% 29.82 in 10.0 mi WSW 3.5 mph - N/A   Clear
8:53 PM 70.0 °F 57.0 °F 63% 29.81 in 10.0 mi Calm Calm - N/A   Clear
9:53 PM 66.0 °F 57.9 °F 75% 29.85 in 10.0 mi Calm Calm - N/A   Clear
10:53 PM 69.1 °F 57.9 °F 68% 29.81 in 10.0 mi SW 9.2 mph - N/A   Clear
11:53 PM 68.0 °F 57.9 °F 70% 29.83 in 10.0 mi SW 8.1 mph - N/A   Clear